Wind_Speed
30 34 37 39 42 46 48 51 53 57 57 57 58 59 57 55 53 52 52 56 57 55 53 51 48 46 45 44 45 46 48 44 43 51 42 31 50 55 47 47 52 45 49 40 33
38 42 46 47 51 55 58 61 63 67 68 68 67 68 69 67 66 60 59 56 58 60 58 56 53 51 49 47 47 47 47 40 45 51 49 31 43 56 55 52 52 42 42 37 38
44 48 50 54 58 64 66 73 81 81 80 81 85 81 80 78 76 76 65 62 61 61 61 60 59 57 54 51 49 49 45 44 47 49 45 37 39 52 58 54 52 44 45 42 43
50 54 56 62 65 68 72 82 80 72 55 48 52 63 73 85 81 84 78 69 66 65 64 63 61 60 59 55 52 51 47 47 49 49 56 59 47 49 49 58 49 53 55 47 45
57 59 60 68 69 74 81 73 39 21 22 21 23 28 33 48 60 86 83 77 70 69 68 65 63 60 59 57 55 53 50 50 50 55 53 56 53 51 51 53 63 60 52 46 45
62 60 64 67 74 82 69 32 23 30 30 30 28 29 28 29 37 57 74 79 73 72 70 68 65 61 61 59 58 55 54 51 51 53 50 47 51 54 52 53 63 60 51 49 49
61 62 67 74 79 76 34 25 28 30 35 37 36 34 30 34 36 44 50 65 73 72 71 71 67 65 62 62 59 59 57 55 53 50 49 46 53 54 52 53 57 56 54 55 52
62 64 72 74 80 46 28 28 28 33 36 40 42 40 34 33 34 36 47 45 54 66 72 72 71 70 66 64 64 63 61 58 54 51 50 50 49 50 51 55 52 51 55 58 55
63 68 73 79 62 30 27 31 34 37 42 44 42 40 33 31 31 33 40 44 42 55 65 72 69 69 69 68 65 64 59 56 58 53 53 52 50 50 51 53 52 51 52 55 58
65 71 76 81 53 25 25 32 36 40 40 40 38 34 29 32 30 31 32 40 40 47 65 68 72 70 68 68 67 59 58 56 57 54 55 53 51 51 52 51 52 52 50 49 53
66 73 79 75 45 26 27 31 38 42 42 40 35 30 25 30 26 25 22 35 39 41 60 67 71 74 68 63 59 59 61 58 56 53 54 51 51 48 54 49 52 53 52 48 48
68 76 81 59 39 24 24 31 33 40 37 34 30 23 23 25 21 18 13 27 35 38 48 66 72 67 64 64 66 55 50 56 46 50 56 52 48 50 54 49 48 48 50 47 46
71 79 79 49 33 24 24 29 36 42 37 29 27 25 21 18 15 15 9 20 28 40 44 61 67 65 65 65 65 61 40 50 40 54 57 49 48 47 49 48 44 45 47 47 45
73 81 78 40 30 26 28 32 36 41 37 34 27 21 17 14 11 12 2 19 25 35 40 48 61 65 67 66 64 61 58 42 41 56 57 47 46 47 48 45 45 44 43 45 44
76 82 75 34 28 26 28 32 37 40 27 31 24 22 16 13 8 10 8 17 23 26 33 44 59 64 62 67 61 57 59 52 44 54 35 44 34 38 45 44 42 43 41 37 37
79 83 68 32 26 27 30 35 38 37 24 29 25 18 16 14 9 6 4 15 23 17 36 33 49 55 65 59 60 43 44 40 38 37 37 41 41 25 42 42 42 41 39 36 34
81 82 60 30 30 28 30 35 35 32 26 27 24 16 15 10 10 11 8 9 25 19 22 30 44 51 53 54 54 37 38 40 34 33 39 34 41 7 31 39 39 37 36 35 35
82 80 53 28 29 27 32 33 34 31 24 29 25 22 15 12 10 11 17 11 30 16 19 37 45 35 58 54 58 52 50 43 44 47 34 32 37 24 34 39 37 38 37 35 34
82 76 47 29 30 30 34 33 34 28 24 25 24 22 15 16 8 5 13 13 30 25 25 37 50 29 53 55 55 48 43 31 25 27 27 31 23 39 45 31 36 35 34 33 30
80 73 50 29 32 28 30 34 32 27 23 26 22 18 17 16 11 2 11 11 28 24 27 34 45 32 42 45 51 46 43 34 32 35 32 29 31 41 47 37 34 34 33 31 31
79 78 47 26 27 28 30 33 37 25 25 23 26 19 16 13 6 5 6 13 27 27 38 45 35 32 43 48 56 47 43 30 26 31 30 31 25 33 36 29 35 35 35 33 29
76 70 49 24 27 27 32 36 45 22 19 20 29 16 18 16 16 10 6 11 23 30 38 44 38 32 50 50 50 49 51 36 28 38 21 26 29 31 35 41 35 33 31 32 31
72 74 60 22 22 23 28 31 42 25 21 19 23 20 12 14 13 17 16 28 28 31 43 37 33 43 47 40 40 46 38 40 27 34 26 33 41 41 37 33 32 32 30 28 28
69 72 56 29 27 29 26 31 39 24 21 18 19 19 18 13 6 4 11 17 34 31 40 35 32 42 47 46 49 44 43 42 35 32 33 26 38 38 30 31 30 29 29 29 28
68 70 63 34 24 25 27 30 35 24 25 18 20 24 18 22 15 13 18 32 31 19 19 25 35 42 40 41 50 45 46 42 32 25 26 30 26 32 31 30 28 27 27 27 27
63 67 62 39 24 28 26 26 31 31 25 16 22 19 16 18 14 14 22 14 7 31 30 33 32 42 25 36 39 36 38 32 24 20 28 28 27 34 28 26 25 25 24 24 24
61 64 61 50 25 27 28 28 33 32 18 12 14 10 10 12 11 12 10 7 17 19 36 24 33 39 31 36 38 36 41 36 28 29 21 28 37 30 28 28 25 22 20 20 20
Wind_Direction
325 322 320 317 315 312 308 302 297 292 285 278 274 273 270 269 262 254 249 247 244 241 240 238 237 235 231 230 229 227 225 226 226 224 222 220 228 227 225 224 227 225 230 225 224
326 323 319 318 315 311 308 304 299 294 287 281 275 269 266 263 265 259 247 245 242 241 238 238 236 234 233 230 229 230 229 226 224 223 223 213 236 227 225 224 231 225 233 225 226
327 326 325 323 319 316 313 309 302 300 297 288 280 271 264 260 257 258 253 244 241 240 237 236 236 234 232 230 229 228 229 226 223 224 222 221 223 228 224 228 231 226 227 224 220
330 329 326 323 321 318 318 314 308 297 297 296 283 270 261 250 250 250 248 243 238 236 236 234 233 233 233 232 228 228 226 226 222 224 222 223 222 228 220 224 229 221 223 221 219
330 331 329 324 321 323 320 313 308 326 323 330 326 315 292 263 251 242 242 239 235 233 233 232 230 230 230 230 226 226 225 225 224 223 224 225 229 230 226 221 227 229 224 224 223
334 334 332 329 327 324 320 307 315 317 313 315 318 310 308 299 270 253 242 237 233 229 229 229 228 224 224 225 226 224 221 224 224 225 226 224 225 229 227 222 230 229 229 226 226
336 335 335 333 329 327 310 311 308 311 311 310 305 306 303 299 295 261 252 242 234 226 224 225 224 221 221 221 221 220 219 221 222 224 226 221 224 227 228 228 229 230 226 229 225
337 339 337 333 333 322 312 311 318 316 312 309 301 303 296 297 298 285 251 245 237 227 218 220 221 222 218 218 218 218 219 219 221 222 224 220 223 226 227 230 230 229 227 228 233
339 337 335 333 334 316 312 309 312 319 321 321 309 299 290 293 300 293 249 238 230 221 216 215 215 221 217 216 216 218 221 217 221 219 222 221 219 224 224 229 229 230 230 229 230
340 338 335 337 332 312 310 314 318 322 321 323 315 301 294 293 306 299 253 227 225 212 212 210 211 212 213 213 218 219 220 217 221 218 220 220 218 223 225 223 229 231 232 231 232
342 337 339 342 328 314 310 319 322 323 325 327 322 298 288 293 310 309 252 219 214 212 207 207 208 211 214 216 216 219 219 215 216 221 221 222 217 219 228 224 227 229 231 231 232
341 339 341 344 328 318 318 331 331 331 337 333 317 312 293 296 311 317 255 208 210 208 204 204 205 205 207 209 210 209 218 214 219 216 220 219 218 220 225 225 228 229 234 233 234
340 340 345 343 332 319 331 331 329 339 338 339 327 318 307 295 309 333 253 204 202 201 208 202 202 201 202 206 207 208 207 210 207 215 221 218 219 217 228 228 227 228 229 232 234
342 343 347 340 333 321 332 335 332 339 338 344 336 322 309 302 305 325 270 214 196 199 203 199 198 199 201 203 202 204 207 205 194 214 220 216 217 215 225 224 226 229 232 231 233
344 344 349 338 339 338 339 341 341 338 347 348 343 332 300 332 291 277 357 204 186 200 193 193 195 198 202 199 199 197 209 204 200 214 207 215 209 222 223 225 227 229 230 231 232
346 348 351 344 343 341 344 351 345 345 349 349 356 339 317 310 294 277 300 189 187 174 190 193 188 193 197 200 198 186 203 192 199 206 201 219 212 209 217 223 222 227 228 228 229
348 352 351 350 352 356 348 353 345 350 347 354 1 355 346 301 264 260 267 203 182 172 205 175 170 193 186 195 190 176 181 183 189 194 203 207 206 182 231 219 225 225 227 226 227
349 355 355 354 3 358 2 354 355 352 350 353 4 7 358 345 302 288 258 203 183 190 173 185 180 184 186 192 186 184 189 189 194 198 190 201 201 196 219 208 216 223 223 226 227
351 358 355 360 3 5 359 351 349 357 345 355 0 2 16 2 329 296 202 186 181 172 167 184 177 167 193 191 186 181 185 183 188 185 184 197 181 202 221 207 212 221 222 222 226
352 359 360 0 4 2 357 359 352 353 349 353 353 7 21 9 10 171 198 177 168 192 156 176 177 171 187 182 182 188 165 181 174 182 180 188 194 206 217 209 208 214 219 223 225
352 359 5 359 0 7 1 6 2 3 4 348 349 31 38 30 25 41 185 169 166 160 162 167 188 170 160 179 179 171 166 169 173 187 184 190 191 211 216 209 213 214 215 220 226
353 3 3 356 3 3 5 2 7 14 9 352 349 354 71 61 73 107 159 170 163 157 166 166 167 171 169 174 177 173 170 160 168 171 186 178 178 208 205 208 210 213 216 222 225
352 358 4 1 4 6 4 356 4 13 13 4 355 15 14 68 60 96 117 151 167 164 162 164 165 173 161 166 173 175 163 158 164 166 172 185 192 202 209 209 205 209 213 219 224
353 360 4 1 7 1 2 359 8 17 16 14 26 26 8 19 35 115 134 143 164 140 167 163 167 171 164 168 164 169 171 158 162 164 167 191 198 198 195 203 205 208 211 217 223
354 359 4 4 3 357 4 359 6 21 22 32 43 47 56 73 93 98 146 143 121 108 102 181 176 162 169 169 170 171 173 173 166 173 180 202 190 202 198 201 202 206 212 219 226
353 359 2 4 355 4 2 357 5 13 19 31 40 51 84 98 136 123 141 137 156 124 128 132 151 163 158 178 173 171 178 165 159 155 178 196 187 194 198 201 200 204 212 219 225
352 357 2 4 1 2 359 360 6 10 26 28 53 48 73 93 123 145 167 132 148 133 150 162 151 160 163 175 166 174 180 155 158 138 162 180 200 196 197 204 205 208 211 217 223
Height
5806 5801 5796 5791 5786 5780 5774 5768 5762 5758 5753 5749 5747 5745 5743 5745 5749 5749 5753 5754 5758 5764 5768 5773 5778 5784 5789 5795 5800 5803 5807 5815 5824 5831 5840 5847 5843 5851 5856 5861 5859 5867 5868 5877 5884
5799 5793 5787 5781 5774 5767 5759 5752 5744 5737 5731 5728 5725 5724 5723 5723 5725 5731 5733 5738 5741 5747 5754 5759 5765 5771 5778 5784 5789 5794 5799 5810 5816 5822 5830 5840 5835 5842 5847 5852 5852 5864 5866 5876 5879
5792 5785 5776 5768 5759 5750 5740 5728 5717 5706 5699 5692 5689 5691 5696 5698 5701 5703 5715 5719 5723 5730 5737 5744 5751 5758 5765 5773 5779 5786 5793 5801 5806 5812 5820 5828 5829 5832 5839 5847 5850 5859 5862 5868 5874
5782 5772 5764 5754 5743 5732 5719 5705 5693 5678 5668 5663 5658 5655 5656 5665 5671 5678 5686 5695 5706 5711 5719 5728 5737 5745 5753 5762 5769 5776 5784 5789 5796 5801 5806 5813 5820 5825 5830 5841 5844 5846 5849 5859 5867
5771 5761 5751 5740 5727 5712 5697 5682 5670 5665 5660 5653 5648 5642 5639 5637 5642 5641 5660 5671 5682 5692 5701 5711 5721 5731 5741 5749 5757 5766 5774 5779 5786 5791 5797 5804 5811 5819 5824 5833 5829 5837 5846 5857 5860
5759 5749 5737 5724 5710 5693 5677 5666 5662 5657 5651 5646 5641 5636 5630 5625 5621 5621 5631 5642 5658 5670 5683 5694 5707 5716 5724 5735 5745 5756 5761 5769 5775 5782 5788 5799 5804 5807 5816 5823 5823 5834 5845 5850 5854
5746 5735 5724 5709 5693 5675 5664 5659 5654 5647 5642 5636 5631 5626 5621 5614 5610 5610 5612 5620 5633 5648 5663 5676 5687 5699 5712 5722 5733 5741 5750 5758 5766 5774 5781 5790 5791 5799 5809 5815 5819 5829 5839 5842 5848
5736 5723 5709 5694 5677 5661 5656 5650 5645 5639 5631 5626 5620 5614 5611 5606 5601 5596 5598 5604 5612 5629 5641 5659 5671 5684 5696 5709 5716 5727 5737 5747 5758 5765 5772 5780 5789 5796 5801 5806 5814 5821 5828 5835 5841
5725 5711 5696 5679 5664 5653 5648 5642 5636 5630 5623 5616 5609 5602 5600 5596 5591 5584 5582 5591 5596 5609 5625 5642 5656 5672 5681 5693 5704 5714 5729 5741 5747 5757 5762 5772 5781 5786 5792 5799 5809 5814 5820 5827 5833
5717 5701 5685 5667 5653 5647 5641 5634 5630 5623 5615 5606 5598 5592 5588 5584 5578 5571 5568 5575 5585 5593 5607 5625 5639 5653 5668 5677 5695 5714 5723 5733 5740 5749 5753 5763 5773 5779 5784 5791 5801 5808 5814 5821 5827
5707 5692 5674 5656 5644 5638 5636 5629 5624 5616 5609 5599 5589 5582 5578 5575 5570 5562 5556 5563 5573 5581 5595 5611 5623 5638 5667 5685 5699 5706 5708 5721 5731 5739 5748 5757 5764 5772 5775 5786 5792 5799 5807 5814 5820
5700 5683 5664 5648 5638 5633 5629 5623 5616 5608 5600 5589 5582 5575 5570 5567 5564 5557 5553 5557 5565 5579 5587 5595 5611 5639 5653 5665 5678 5690 5701 5715 5725 5733 5738 5749 5759 5766 5769 5780 5787 5795 5801 5810 5816
5693 5674 5656 5641 5634 5629 5624 5617 5609 5601 5593 5585 5576 5570 5565 5561 5558 5555 5552 5553 5560 5567 5576 5590 5614 5626 5640 5654 5668 5683 5696 5708 5721 5725 5731 5742 5751 5760 5765 5773 5782 5789 5795 5803 5810
5686 5667 5649 5634 5630 5624 5620 5612 5604 5595 5588 5581 5572 5566 5561 5558 5556 5553 5551 5553 5556 5564 5577 5589 5604 5616 5629 5644 5661 5675 5688 5700 5713 5716 5724 5736 5746 5752 5758 5766 5774 5783 5791 5798 5804
5680 5661 5644 5628 5625 5621 5616 5609 5599 5591 5584 5577 5568 5562 5557 5556 5555 5551 5550 5551 5555 5561 5571 5580 5589 5604 5619 5637 5654 5672 5680 5695 5705 5712 5724 5731 5743 5750 5754 5761 5769 5777 5785 5793 5799
5674 5656 5638 5628 5624 5618 5612 5605 5597 5590 5581 5573 5566 5560 5556 5552 5552 5552 5551 5551 5555 5560 5567 5580 5589 5600 5619 5638 5651 5669 5676 5691 5700 5709 5719 5726 5738 5747 5750 5757 5763 5771 5779 5786 5792
5670 5651 5633 5625 5621 5615 5610 5603 5597 5587 5580 5574 5565 5558 5553 5550 5549 5550 5550 5552 5555 5560 5566 5575 5586 5599 5614 5629 5646 5658 5671 5683 5695 5703 5715 5726 5733 5747 5746 5753 5759 5767 5774 5779 5785
5665 5648 5635 5626 5619 5615 5609 5603 5595 5586 5579 5572 5565 5558 5554 5551 5549 5548 5549 5552 5556 5559 5566 5574 5582 5595 5606 5618 5635 5650 5666 5679 5687 5700 5713 5720 5726 5740 5736 5747 5753 5759 5767 5773 5779
5663 5647 5632 5625 5620 5613 5609 5603 5594 5586 5579 5572 5565 5558 5554 5550 5548 5546 5547 5551 5555 5561 5567 5580 5588 5593 5605 5623 5639 5650 5665 5685 5698 5707 5715 5718 5727 5731 5732 5744 5751 5756 5762 5767 5774
5666 5650 5634 5626 5619 5616 5611 5603 5594 5586 5580 5573 5566 5560 5555 5551 5548 5546 5548 5553 5555 5563 5567 5585 5591 5595 5607 5625 5639 5652 5670 5678 5689 5700 5706 5713 5720 5723 5726 5739 5746 5753 5758 5763 5766
5664 5645 5632 5628 5623 5616 5611 5604 5595 5585 5581 5575 5567 5562 5558 5554 5550 5548 5551 5554 5558 5562 5568 5576 5587 5597 5607 5618 5631 5647 5658 5675 5690 5699 5704 5708 5718 5720 5727 5737 5742 5748 5753 5759 5763
5667 5649 5635 5629 5624 5618 5610 5603 5596 5587 5583 5578 5571 5566 5561 5558 5554 5552 5554 5556 5563 5568 5573 5578 5588 5598 5608 5626 5638 5653 5660 5673 5684 5691 5700 5708 5715 5715 5721 5727 5735 5743 5749 5753 5756
5667 5654 5639 5631 5627 5622 5615 5608 5599 5590 5586 5581 5576 5569 5566 5563 5561 5560 5560 5562 5566 5570 5577 5584 5592 5597 5610 5624 5635 5647 5657 5669 5677 5687 5695 5700 5703 5708 5717 5726 5732 5738 5743 5748 5752
5668 5654 5640 5630 5624 5621 5618 5610 5602 5595 5589 5584 5580 5573 5572 5570 5570 5567 5567 5568 5569 5575 5582 5589 5596 5605 5611 5622 5632 5646 5657 5667 5676 5686 5694 5699 5699 5707 5714 5721 5728 5733 5738 5743 5747
5667 5654 5641 5633 5629 5625 5618 5612 5606 5599 5593 5590 5586 5581 5580 5577 5574 5575 5576 5576 5577 5580 5583 5590 5601 5614 5625 5632 5640 5650 5658 5667 5678 5688 5694 5695 5701 5705 5713 5718 5725 5730 5734 5738 5741
5671 5660 5646 5635 5628 5625 5621 5615 5609 5604 5599 5595 5592 5589 5587 5587 5584 5585 5585 5587 5586 5590 5595 5598 5610 5618 5627 5634 5643 5652 5660 5671 5680 5685 5688 5695 5698 5702 5710 5716 5722 5727 5731 5734 5737
5670 5658 5646 5638 5630 5626 5622 5617 5611 5606 5603 5599 5597 5593 5592 5592 5592 5593 5593 5593 5592 5594 5598 5602 5612 5619 5624 5636 5644 5653 5659 5670 5677 5682 5691 5693 5693 5702 5707 5713 5719 5723 5727 5731 5734